[[{"header":{"parameterUnit":"m.s-1","parameterCategory":1,"la1":30.2991,"la2":30.254,"lo1":-89.0895,"lo2":-89.0444,"dy":0.0017,"dx":0.0017,"nx":28,"ny":28,"refTime":"2024-08-19T21:00:00:Z","depth":0,"parameterNumber":2,"parameterNumberName":"U-component_of_WINDS"},"data":[0,0,0,0,0,0,0,0,0,0,0,0,0,0,0,0,0,0,0,0,0,0,0,0,0,0,0,0,0,0,0,0,0,0,0,0,0,0,0,0,0,0,0,0,0,0,0,0,0,0,0,0,0,0,0,0,0,0,-1.0137,-1.0139,0,-1.026,-1.0262,-1.0263,-1.0247,-1.0245,-1.0243,-1.0241,-1.0374,-1.0379,-1.0385,0,0,0,0,0,0,0,0,0,0,0,0,0,-0.9893,-0.9898,-1.0137,-1.0139,-1.014,-1.026,-1.0262,-1.0263,-1.0247,-1.0245,-1.0242,-1.024,-1.0372,-1.0378,-1.0385,0,0,0,0,0,0,0,0,0,0,0,0,0,-1.0006,-0.9899,-1.0137,-1.0147,-1.0149,-1.026,-1.0262,-1.0264,-1.0248,-1.0245,-1.0242,-1.0239,-1.037,-1.0378,-1.0386,-1.0497,0,0,-1.0411,-1.0414,0,0,0,0,0,0,0,0,-1.0,-1.0015,-1.0144,-1.0146,-1.0149,-1.0235,-1.0224,-1.0342,-1.0249,-1.0211,-1.0241,-1.0238,-1.0331,-1.0342,-1.0372,-1.0503,-1.0509,-1.0412,-1.0416,-1.042,-1.0422,0,0,0,0,0,0,0,-0.9992,-1.001,-1.0186,-1.0146,-1.0149,-1.0146,-1.0159,-1.0247,-1.0287,-1.0214,-1.0213,-1.0227,-1.0331,-1.0364,-1.0375,-1.0511,-1.0411,-1.0419,-1.0424,-1.0427,-1.0738,-1.0741,0,0,0,0,0,0,-0.9981,-1.0003,-1.0182,-1.019,-1.0065,-1.0153,-1.0167,-1.0211,-1.0285,-1.0294,-1.023,-1.0226,-1.0352,-1.0365,-1.0379,-1.0513,-1.042,-1.0428,-1.0432,-1.0735,-1.0739,-1.0742,0,0,0,0,0,0,-0.9976,-0.9997,-1.0177,-1.0096,-1.0119,-1.016,-1.0209,-1.0215,-1.0247,-1.0297,-1.0305,-1.0255,-1.035,-1.0368,-1.0467,-1.0518,-1.0431,-1.0439,-1.0731,-1.0736,-1.0741,-1.0783,0,0,0,0,0,0,-0.9969,-0.9995,-1.0037,-1.0097,-1.0123,-1.0262,-1.0212,-1.0219,-1.026,-1.0257,-1.0323,-1.0332,-1.0349,-1.0455,-1.0475,-1.0527,-1.0445,-1.0726,-1.0733,-1.0739,-1.0777,-1.0789,-1.0799,0,0,0,0,0,-0.996,-1.0046,-1.0039,-1.0061,-1.0176,-1.0265,-1.028,-1.0296,-1.0264,-1.0307,-1.0339,-1.033,-1.0508,-1.0465,-1.0488,-1.0543,-1.0723,-1.0731,-1.0738,-1.0772,-1.0786,-1.0798,0,0,0,0,0,0,-0.9995,-1.0055,-1.0048,-1.0156,-1.0205,-1.0262,-1.0317,-1.0311,-1.0372,-1.0366,-1.0385,-1.0401,-1.05,-1.0532,-1.0482,-1.0654,-1.0612,-1.0624,-1.063,-1.0644,-1.0654,-1.0645,-1.0452,0,0,0,0,0,-1.0014,-1.0079,-1.0129,-1.0219,-1.0244,-1.0276,-1.0315,-1.0322,-1.0375,-1.0397,-1.0436,-1.0489,-1.0557,-1.0602,-1.0668,-1.0781,-1.0795,-1.083,-1.0841,-1.0849,-1.086,-1.0921,-1.0937,-1.0767,-1.0767,-1.0767,0,0,-1.0057,-1.0097,-1.0138,-1.0227,-1.0266,-1.0334,-1.0294,-1.0368,-1.0419,-1.0409,-1.0504,-1.0534,-1.0595,-1.0701,-1.075,-1.073,-1.091,-1.0859,-1.0865,-1.0872,-1.093,-1.0946,-1.096,-1.0772,-1.0772,-1.0771,0,0,-1.0168,-1.0205,-1.0284,-1.0323,-1.0381,-1.0401,-1.042,-1.0477,-1.0496,-1.0591,-1.0584,-1.0645,-1.0762,-1.0805,-1.0842,-1.0966,-1.0959,-1.0987,-1.1043,-1.1102,-1.1115,-1.1127,-1.1171,-1.1186,-1.0997,-1.0997,-1.0997,0,-1.0215,-1.0314,-1.0326,-1.0399,-1.0439,-1.0429,-1.0509,-1.0547,-1.0625,-1.0652,-1.0628,-1.0773,-1.0813,-1.0928,-1.0958,-1.0988,-1.1011,-1.098,-1.1112,-1.1124,-1.1136,-1.1177,-1.1193,-1.1,-1.1,-1.1,-1.0999,0,-1.0368,-1.0437,-1.0494,-1.0565,-1.0611,-1.0687,-1.0711,-1.0756,-1.0758,-1.0781,-1.0877,-1.0924,-1.0998,-1.1026,-1.1031,-1.1141,-1.1127,-1.1107,-1.1066,-1.1154,-1.1194,-1.121,-1.1004,-1.1003,-1.1002,-1.1002,0,0,-1.0508,-1.0581,-1.0602,-1.0633,-1.0695,-1.0749,-1.0825,-1.0894,-1.0932,-1.0985,-1.1049,-1.1146,-1.1127,-1.117,-1.1179,-1.123,-1.1323,-1.1204,-1.1206,-1.1224,-1.1447,-1.1461,-1.1479,-1.1318,-1.1321,-1.1324,-1.1441,0,-1.0625,-1.0756,-1.0767,-1.0886,-1.095,-1.0939,-1.1005,-1.1051,-1.1073,-1.1131,-1.1157,-1.1225,-1.1196,-1.1221,-1.1271,-1.1301,-1.1368,-1.1293,-1.1379,-1.1382,-1.1364,-1.15,-1.1516,-1.1624,-1.1457,-1.1459,-1.1461,0,-1.0781,-1.0834,-1.0958,-1.1008,-1.1035,-1.1094,-1.1157,-1.1212,-1.1263,-1.1276,-1.132,-1.1322,-1.14,-1.1354,-1.1462,-1.141,-1.1446,-1.1465,-1.147,-1.1479,-1.1427,-1.1513,-1.1659,-1.1675,-1.1486,-1.1484,-1.1482,0,-1.0869,-1.0973,-1.106,-1.1087,-1.1148,-1.1189,-1.1216,-1.1264,-1.1304,-1.1359,-1.1385,-1.145,-1.1485,-1.1536,-1.1554,-1.1519,-1.1661,-1.1617,-1.1674,-1.1674,-1.1706,-1.1704,-1.1861,-1.1729,-1.1728,-1.1728,-1.1728,0,-1.1,-1.1076,-1.11,-1.1154,-1.1238,-1.125,-1.1334,-1.1359,-1.1401,-1.146,-1.1456,-1.1512,-1.1533,-1.1592,-1.1607,-1.1693,-1.171,-1.1723,-1.1726,-1.1723,-1.1722,-1.1748,-1.1741,-1.1732,-1.1731,-1.1731,-1.173,0,-1.1114,-1.1133,-1.1227,-1.1275,-1.1289,-1.1349,-1.1391,-1.1443,-1.1462,-1.1537,-1.1555,-1.1587,-1.1656,-1.1679,-1.1764,-1.1774,-1.1875,-1.1872,-1.1857,-1.1857,-1.1913,-1.1907,-1.2092,-1.2117,-1.1969,-1.197,-1.1971,0,-1.1196,-1.1254,-1.1307,-1.1344,-1.1372,-1.1434,-1.1473,-1.1486,-1.1527,-1.1587,-1.1632,-1.1699,-1.1754,-1.1865,-1.1897,-1.1962,-1.196,-1.202,-1.197,-1.1964,-1.196,-1.1956,-1.1962,-1.203,-1.2032,-1.2033,-1.2034,0,-1.134,-1.1345,-1.1401,-1.1459,-1.1505,-1.1553,-1.1599,-1.163,-1.1649,-1.1696,-1.1765,-1.1807,-1.1891,-1.1959,-1.2023,-1.2053,-1.2047,-1.2049,-1.2065,-1.2064,-1.2052,-1.2058,-1.1882,-1.2045,-1.2044,-1.2043,-1.2043,-1.2042,-1.1441,-1.149,-1.1534,-1.1595,-1.163,-1.1672,-1.1722,-1.1746,-1.1803,-1.187,-1.1875,-1.1949,-1.1996,-1.2082,-1.2114,-1.2173,-1.2156,-1.2181,-1.2187,-1.2193,-1.2196,-1.2042,-1.2185,-1.2185,-1.2185,-1.2184,-1.2184,0,-1.1583,-1.161,-1.1666,-1.1727,-1.1776,-1.1762,-1.1811,-1.1853,-1.1917,-1.196,-1.2013,-1.2091,-1.2155,-1.219,-1.2254,-1.2295,-1.2293,-1.2311,-1.2309,-1.2315,-1.2208,-1.2187,-1.2311,-1.2311,-1.2311,-1.2311,-1.2311,-1.2311,-1.1663,-1.1746,-1.1756,-1.1855,-1.1882,-1.1952,-1.1981,-1.2019,-1.2053,-1.214,-1.2191,-1.2213,-1.2253,-1.2319,-1.2377,-1.2386,-1.241,-1.2429,-1.2436,-1.2336,-1.2323,-1.2311,-1.2291,-1.2434,-1.2435,-1.2538,-1.2539,-1.254]},{"header":{"parameterUnit":"m.s-1","parameterCategory":1,"la1":30.2991,"la2":30.254,"lo1":-89.0895,"lo2":-89.0444,"dy":0.0017,"dx":0.0017,"nx":28,"ny":28,"refTime":"2024-08-19T21:00:00:Z","depth":0,"parameterNumber":3,"parameterNumberName":"V-component_of_WINDS"},"data":[0,0,0,0,0,0,0,0,0,0,0,0,0,0,0,0,0,0,0,0,0,0,0,0,0,0,0,0,0,0,0,0,0,0,0,0,0,0,0,0,0,0,0,0,0,0,0,0,0,0,0,0,0,0,0,0,0,0,-2.4979,-2.498,0,-2.5096,-2.5098,-2.5099,-2.5116,-2.5115,-2.5114,-2.5113,-2.5229,-2.5233,-2.5237,0,0,0,0,0,0,0,0,0,0,0,0,0,-2.4766,-2.477,-2.4979,-2.4981,-2.4982,-2.5096,-2.5098,-2.5099,-2.5116,-2.5115,-2.5114,-2.5113,-2.5228,-2.5233,-2.5238,0,0,0,0,0,0,0,0,0,0,0,0,0,-2.4869,-2.4772,-2.4979,-2.5004,-2.5008,-2.5096,-2.5098,-2.51,-2.5117,-2.5115,-2.5114,-2.5112,-2.5226,-2.5232,-2.5238,-2.5308,0,0,-2.5257,-2.526,0,0,0,0,0,0,0,0,-2.4863,-2.4876,-2.4999,-2.5003,-2.5007,-2.509,-2.5065,-2.5169,-2.5117,-2.5075,-2.5113,-2.5111,-2.5184,-2.5193,-2.5219,-2.5313,-2.5318,-2.5258,-2.5261,-2.5264,-2.5266,0,0,0,0,0,0,0,-2.4856,-2.4871,-2.5025,-2.5001,-2.5006,-2.5009,-2.5022,-2.5085,-2.5137,-2.5079,-2.508,-2.5094,-2.5186,-2.5213,-2.5222,-2.532,-2.5257,-2.5263,-2.5267,-2.5269,-2.5476,-2.5478,0,0,0,0,0,0,-2.4845,-2.4865,-2.5022,-2.5029,-2.493,-2.5014,-2.5028,-2.5065,-2.5136,-2.5146,-2.5095,-2.5095,-2.5203,-2.5215,-2.5226,-2.5311,-2.5264,-2.527,-2.5273,-2.5474,-2.5477,-2.5479,0,0,0,0,0,0,-2.484,-2.4858,-2.5017,-2.4948,-2.4968,-2.5019,-2.506,-2.5068,-2.5095,-2.5149,-2.5158,-2.5114,-2.5202,-2.5217,-2.5287,-2.5316,-2.5272,-2.5278,-2.5472,-2.5475,-2.5478,-2.5483,0,0,0,0,0,0,-2.4834,-2.4857,-2.4884,-2.4948,-2.4972,-2.5078,-2.5062,-2.5072,-2.5106,-2.5106,-2.5169,-2.5177,-2.5202,-2.5278,-2.5293,-2.5323,-2.5283,-2.547,-2.5474,-2.5477,-2.5481,-2.5486,-2.549,0,0,0,0,0,-2.4826,-2.488,-2.4886,-2.4904,-2.5008,-2.5079,-2.5093,-2.5121,-2.5109,-2.5136,-2.5171,-2.5175,-2.531,-2.5285,-2.5303,-2.5335,-2.5468,-2.5473,-2.5477,-2.5478,-2.5485,-2.549,0,0,0,0,0,0,-2.4817,-2.4889,-2.4896,-2.4973,-2.502,-2.5082,-2.5118,-2.5127,-2.5178,-2.5176,-2.5208,-2.5222,-2.529,-2.5319,-2.529,-2.5405,-2.5388,-2.5396,-2.5383,-2.539,-2.5394,-2.5385,-2.5288,0,0,0,0,0,-2.4825,-2.4878,-2.4937,-2.4999,-2.5023,-2.5066,-2.5099,-2.5117,-2.5166,-2.5186,-2.5226,-2.5272,-2.5325,-2.5359,-2.5411,-2.5485,-2.5498,-2.5516,-2.552,-2.5524,-2.553,-2.557,-2.5578,-2.5492,-2.5492,-2.5492,0,0,-2.4839,-2.4885,-2.4917,-2.4999,-2.5037,-2.5091,-2.5083,-2.514,-2.5179,-2.5194,-2.5263,-2.5294,-2.5348,-2.542,-2.5454,-2.5447,-2.5557,-2.5529,-2.5532,-2.5536,-2.5575,-2.5583,-2.5591,-2.5495,-2.5495,-2.5494,0,0,-2.4894,-2.4935,-2.499,-2.503,-2.5089,-2.5117,-2.5131,-2.5192,-2.5213,-2.5283,-2.5295,-2.5342,-2.5433,-2.5471,-2.5502,-2.5571,-2.5577,-2.5587,-2.5611,-2.565,-2.5657,-2.5663,-2.5686,-2.5695,-2.5593,-2.5593,-2.5593,0,-2.4905,-2.4987,-2.5018,-2.5074,-2.5109,-2.5127,-2.5183,-2.5219,-2.5291,-2.5315,-2.5306,-2.542,-2.5458,-2.5539,-2.5556,-2.5581,-2.5596,-2.5579,-2.5654,-2.566,-2.5666,-2.5689,-2.5698,-2.5594,-2.5593,-2.5593,-2.5593,0,-2.4996,-2.5053,-2.5091,-2.5161,-2.5201,-2.5257,-2.5295,-2.5331,-2.5346,-2.5375,-2.5446,-2.5492,-2.5553,-2.5574,-2.5588,-2.5657,-2.565,-2.5647,-2.563,-2.5675,-2.5696,-2.5705,-2.5595,-2.5594,-2.5594,-2.5594,0,0,-2.5048,-2.5135,-2.5149,-2.5181,-2.5247,-2.5291,-2.5347,-2.5408,-2.5438,-2.5487,-2.5534,-2.5611,-2.5609,-2.5644,-2.5663,-2.5697,-2.5748,-2.569,-2.5692,-2.5698,-2.5825,-2.5826,-2.5835,-2.5753,-2.5754,-2.5756,-2.582,0,-2.5109,-2.5211,-2.5241,-2.5326,-2.5378,-2.5396,-2.5445,-2.549,-2.5519,-2.5566,-2.5597,-2.5651,-2.5644,-2.5665,-2.57,-2.5734,-2.5773,-2.573,-2.5795,-2.5797,-2.578,-2.5847,-2.5849,-2.5907,-2.5829,-2.583,-2.5831,0,-2.5194,-2.5246,-2.5337,-2.5397,-2.542,-2.5463,-2.5521,-2.5567,-2.5618,-2.5637,-2.5676,-2.5692,-2.575,-2.5731,-2.5811,-2.578,-2.5809,-2.5829,-2.5832,-2.5838,-2.5816,-2.5854,-2.5926,-2.5934,-2.5845,-2.5844,-2.5843,0,-2.5221,-2.5314,-2.538,-2.5407,-2.5479,-2.5509,-2.554,-2.559,-2.5624,-2.5675,-2.5697,-2.5753,-2.5784,-2.5826,-2.5856,-2.584,-2.5933,-2.5916,-2.5948,-2.5947,-2.5966,-2.5964,-2.6042,-2.5986,-2.5986,-2.5986,-2.5986,0,-2.5286,-2.534,-2.5393,-2.5434,-2.5495,-2.5528,-2.5588,-2.5619,-2.5664,-2.571,-2.5728,-2.5771,-2.5809,-2.5856,-2.588,-2.5941,-2.5955,-2.597,-2.5976,-2.5968,-2.5966,-2.5986,-2.5983,-2.5988,-2.5988,-2.5987,-2.5987,0,-2.5326,-2.5364,-2.5437,-2.5499,-2.5516,-2.5558,-2.5611,-2.565,-2.568,-2.5738,-2.5753,-2.5799,-2.5856,-2.5891,-2.5962,-2.5978,-2.6045,-2.605,-2.6028,-2.603,-2.606,-2.6056,-2.6153,-2.6167,-2.6102,-2.6103,-2.6103,0,-2.5364,-2.5407,-2.5474,-2.5506,-2.5538,-2.559,-2.5626,-2.5661,-2.5697,-2.5759,-2.579,-2.5848,-2.5896,-2.5986,-2.6025,-2.6079,-2.6084,-2.6114,-2.6092,-2.6083,-2.6083,-2.608,-2.6084,-2.6118,-2.6118,-2.6119,-2.6119,0,-2.5427,-2.5444,-2.5496,-2.5554,-2.5596,-2.5643,-2.569,-2.5715,-2.5757,-2.5797,-2.5856,-2.5893,-2.5967,-2.6023,-2.6081,-2.6112,-2.6122,-2.6126,-2.6136,-2.6128,-2.6113,-2.612,-2.6037,-2.6123,-2.6123,-2.6122,-2.6122,-2.6122,-2.5467,-2.5505,-2.5559,-2.5615,-2.5654,-2.5698,-2.5738,-2.5773,-2.5823,-2.5886,-2.5903,-2.5964,-2.6014,-2.6093,-2.6125,-2.6172,-2.6167,-2.6182,-2.6186,-2.6189,-2.6189,-2.6107,-2.6183,-2.6183,-2.6183,-2.6183,-2.6183,0,-2.553,-2.5566,-2.5617,-2.5683,-2.5727,-2.5735,-2.5787,-2.5823,-2.5877,-2.5923,-2.5971,-2.6038,-2.6093,-2.6136,-2.6193,-2.6222,-2.6228,-2.6236,-2.6233,-2.624,-2.619,-2.6175,-2.623,-2.623,-2.623,-2.623,-2.623,-2.623,-2.5568,-2.5634,-2.5657,-2.5741,-2.5776,-2.5837,-2.5866,-2.5905,-2.5942,-2.6017,-2.6063,-2.6092,-2.6137,-2.6197,-2.6248,-2.6259,-2.6278,-2.6285,-2.6296,-2.6249,-2.6244,-2.6238,-2.6225,-2.6289,-2.6289,-2.6342,-2.6343,-2.6343]}]]